Maple Creek, Saskatchewan

11:25 PM CST on November 18, 2017 (GMT -0600)
Maple Creek

Weather History for CWMQ - September, 2013

Change the Weather History Date:

Monday, September 2, 2013

  Actual Average Record
Temperature  
Mean Temperature 76 °F -  
Max Temperature 93 °F - - ()
Min Temperature 58 °F - - ()
Cooling Degree Days 10    
Growing Degree Days 26 (Base 50)    
Moisture  
Dew Point 44 °F    
Average Humidity 35    
Maximum Humidity 66    
Minimum Humidity 8    
Precipitation  
Precipitation 0.00 in - - ()
Sea Level Pressure  
Sea Level Pressure 29.85 in    
Wind  
Wind Speed 9 mph ()    
Max Wind Speed 20 mph    
Max Gust Speed 24 mph    
T = Trace of Precipitation, MM = Missing Value Source: Averaged Metar Reports

Daily Weather History Graph

Daily Weather History Graph

Search for Another Location

Airport or City:

Trip Planner

Search our weather history database for the weather conditions in past years. The results will help you decide how hot, cold, wet, or windy it might be!

Date:

Astronomy

Sep. 02, 2013 Rise Set
Actual Time 6:35 AM CST 7:58 PM CST
Civil Twilight 6:01 AM CST 8:32 PM CST
Nautical Twilight 5:20 AM CST 9:12 PM CST
Astronomical Twilight 4:36 AM CST 9:56 PM CST
Moon 3:45 AM CST (9/2) 6:20 PM CST (9/2)
Length of Visible Light 14h 30m
Length of Day
13h 23m
Waning Crescent, 7% of the Moon is Illuminated
Sep 2
Waning Crescent
Sep 5
New
Sep 12
First Quarter
Sep 19
Full
Sep 26
Last Quarter

Hourly Weather History & Observations

Time (CST) Temp. Dew Point Humidity Pressure Visibility Wind Dir Wind Speed Gust Speed Precip Events Conditions
12:00 AM 69 °F 48 °F 36% 29.86 in - South 17.3 mph - -  
12:00 AM 69.4 °F 48.0 °F 46% 29.86 in - South 17.3 mph 24.2 mph N/A   Unknown
1:00 AM 68.2 °F 48.7 °F 50% 29.86 in - South 19.6 mph - N/A   Unknown
2:00 AM 68.0 °F 48.6 °F 50% 29.86 in - South 17.3 mph - N/A   Unknown
3:00 AM 67.1 °F 48.0 °F 50% 29.86 in - South 13.8 mph - N/A   Unknown
4:00 AM 65.8 °F 47.5 °F 52% 29.87 in - South 12.7 mph - N/A   Unknown
5:00 AM 63.3 °F 46.0 °F 53% 29.87 in - SSW 6.9 mph - N/A   Unknown
6:00 AM 62 °F 45 °F 43% 29.87 in - SW 5.8 mph - -  
6:00 AM 62.2 °F 45.1 °F 54% 29.87 in - SW 5.8 mph - N/A   Unknown
7:00 AM 58.6 °F 45.0 °F 60% 29.89 in - SSW 1.2 mph - N/A   Unknown
8:00 AM 63.0 °F 51.3 °F 66% 29.90 in - WNW 1.2 mph - N/A   Unknown
9:00 AM 70.5 °F 50.5 °F 49% 29.89 in - North 1.2 mph - N/A   Unknown
10:00 AM 79.7 °F 47.3 °F 32% 29.87 in - ENE 2.3 mph - N/A   Unknown
11:00 AM 88.2 °F 43.5 °F 21% 29.86 in - East 4.6 mph - N/A   Unknown
12:00 PM 92 °F 37 °F 8% 29.84 in - SSE 8.1 mph - -  
12:00 PM 91.8 °F 37.4 °F 15% 29.84 in - SSE 8.1 mph - N/A   Unknown
1:00 PM 91.4 °F 39.6 °F 16% 29.82 in - South 9.2 mph - N/A   Unknown
2:00 PM 92.8 °F 36.5 °F 14% 29.81 in - South 9.2 mph - N/A   Unknown
3:00 PM 93.0 °F 34.9 °F 13% 29.81 in - South 11.5 mph - N/A   Unknown
4:00 PM 93.0 °F 36.0 °F 13% 29.81 in - South 11.5 mph - N/A   Unknown
5:00 PM 92.8 °F 39.4 °F 15% 29.80 in - South 10.4 mph - N/A   Unknown
6:00 PM 91.0 °F 41.4 °F 18% 29.81 in - South 10.4 mph - N/A   Unknown
7:00 PM 87.8 °F 41.9 °F 20% 29.80 in - SSE 6.9 mph - N/A   Unknown
8:00 PM 80.4 °F 45.7 °F 29% 29.81 in - SSE 5.8 mph - N/A   Unknown
9:00 PM 78.6 °F 45.7 °F 31% 29.83 in - WNW 2.3 mph - N/A   Unknown
10:00 PM 73.4 °F 50.2 °F 44% 29.83 in - South 2.3 mph - N/A   Unknown
11:00 PM 72.5 °F 49.5 °F 44% 29.84 in - South 4.6 mph - N/A   Unknown